WMT6Z LIRZ-LATI

Flight info

Callsign WMT6Z
Flight time 0h 57m
Altitude 36000
Route GITOD DCT INTUD DCT GARGA/N0435F350 DCT VAKSU DCT PETAK
Aircraft A321/M-SDE1E2E3FGIJ1J4RWXY/LB1

Departure

Time 2026-05-05 09:13
Airport Perugia San Francesco d'Assisi – Umbria International Airport (LIRZ)

Arrival

Time 2026-05-05 10:11
Airport Tirana International Airport Mother Teresa (LATI)
Time Latitude Longitude Altitude Speed Heading
2026-05-05 08:21 43.09513 12.50383 669 ft 0 kts 249°
2026-05-05 09:05 43.09512 12.50378 667 ft 1 kts 252°
2026-05-05 09:05 43.09515 12.50367 668 ft 1 kts 295°
2026-05-05 09:06 43.09523 12.50362 667 ft 1 kts 341°
2026-05-05 09:06 43.09534 12.50368 669 ft 2 kts 28°
2026-05-05 09:06 43.09539 12.50387 667 ft 3 kts 83°
2026-05-05 09:06 43.09538 12.50419 668 ft 4 kts 91°
2026-05-05 09:07 43.09543 12.50465 669 ft 6 kts 72°
2026-05-05 09:07 43.09559 12.50515 669 ft 6 kts 66°
2026-05-05 09:07 43.09579 12.50575 667 ft 8 kts 66°
2026-05-05 09:07 43.09606 12.50659 669 ft 11 kts 66°
2026-05-05 09:08 43.09640 12.50763 669 ft 13 kts 66°
2026-05-05 09:08 43.09679 12.50879 669 ft 14 kts 66°
2026-05-05 09:08 43.09721 12.51007 669 ft 15 kts 66°
2026-05-05 09:08 43.09761 12.51130 669 ft 10 kts 65°
2026-05-05 09:09 43.09822 12.51174 669 ft 11 kts 10°
2026-05-05 09:09 43.09912 12.51202 669 ft 15 kts 15°
2026-05-05 09:09 43.10024 12.51243 669 ft 18 kts 14°
2026-05-05 09:09 43.10158 12.51288 669 ft 21 kts 13°
2026-05-05 09:10 43.10311 12.51341 669 ft 24 kts 15°
2026-05-05 09:10 43.10476 12.51400 669 ft 25 kts 14°
2026-05-05 09:10 43.10647 12.51459 669 ft 26 kts 14°
2026-05-05 09:10 43.10764 12.51509 667 ft 11 kts 37°
2026-05-05 09:11 43.10778 12.51595 669 ft 10 kts 103°
2026-05-05 09:11 43.10759 12.51691 669 ft 10 kts 107°
2026-05-05 09:11 43.10719 12.51718 669 ft 6 kts 190°
2026-05-05 09:11 43.10710 12.51714 669 ft 0 kts 196°
2026-05-05 09:12 43.10707 12.51713 669 ft 1 kts 196°
2026-05-05 09:12 43.10652 12.51692 668 ft 29 kts 195°
2026-05-05 09:13 43.10202 12.51536 672 ft 102 kts 194°
2026-05-05 09:13 43.09312 12.51226 746 ft 152 kts 194°
2026-05-05 09:13 43.08306 12.50866 1476 ft 149 kts 194°
2026-05-05 09:13 43.07311 12.50524 2185 ft 148 kts 193°
2026-05-05 09:14 43.06257 12.50171 2524 ft 166 kts 192°
2026-05-05 09:14 43.05061 12.49770 2760 ft 188 kts 192°
2026-05-05 09:14 43.03812 12.49095 3186 ft 198 kts 206°
2026-05-05 09:14 43.02618 12.48157 3902 ft 197 kts 208°
2026-05-05 09:15 43.01433 12.47236 4629 ft 196 kts 208°
2026-05-05 09:15 43.00246 12.46319 5261 ft 196 kts 210°
2026-05-05 09:15 42.99047 12.45395 5895 ft 200 kts 211°
2026-05-05 09:15 42.97822 12.44451 6578 ft 203 kts 211°
2026-05-05 09:16 42.96579 12.43494 7180 ft 207 kts 211°
2026-05-05 09:16 42.95318 12.42524 7843 ft 209 kts 212°
2026-05-05 09:16 42.94034 12.41541 8428 ft 214 kts 212°
2026-05-05 09:16 42.92726 12.40539 9000 ft 217 kts 212°
2026-05-05 09:17 42.91392 12.39513 9531 ft 223 kts 212°
2026-05-05 09:17 42.90033 12.38472 10080 ft 226 kts 212°
2026-05-05 09:17 42.88603 12.37395 10256 ft 246 kts 212°
2026-05-05 09:17 42.87027 12.36216 10422 ft 270 kts 211°
2026-05-05 09:18 42.85308 12.34935 10585 ft 293 kts 211°
2026-05-05 09:18 42.83448 12.33557 10755 ft 315 kts 211°
2026-05-05 09:18 42.81397 12.32413 11271 ft 326 kts 193°
2026-05-05 09:18 42.79101 12.32485 11896 ft 339 kts 168°
2026-05-05 09:19 42.76953 12.33911 12559 ft 351 kts 149°
2026-05-05 09:19 42.74933 12.35801 13273 ft 355 kts 149°
2026-05-05 09:19 42.72902 12.37741 13930 ft 359 kts 149°
2026-05-05 09:19 42.70854 12.39705 14510 ft 362 kts 149°
2026-05-05 09:20 42.68783 12.41686 15096 ft 366 kts 149°
2026-05-05 09:20 42.66690 12.43681 15737 ft 369 kts 149°
2026-05-05 09:20 42.64580 12.45682 16384 ft 371 kts 149°
2026-05-05 09:20 42.62454 12.47685 17019 ft 373 kts 150°
2026-05-05 09:21 42.60309 12.49699 17643 ft 376 kts 150°
2026-05-05 09:21 42.58146 12.51725 18253 ft 379 kts 150°
2026-05-05 09:21 42.55966 12.53767 18771 ft 382 kts 150°
2026-05-05 09:21 42.53765 12.55824 19268 ft 386 kts 150°
2026-05-05 09:22 42.51558 12.57930 19754 ft 391 kts 146°
2026-05-05 09:22 42.49589 12.60531 20239 ft 401 kts 133°
2026-05-05 09:22 42.48067 12.63745 20741 ft 411 kts 119°
2026-05-05 09:22 42.47096 12.67421 21244 ft 420 kts 105°
2026-05-05 09:23 42.46726 12.71365 21737 ft 426 kts 95°
2026-05-05 09:23 42.46552 12.75391 22238 ft 430 kts 95°
2026-05-05 09:23 42.46375 12.79445 22730 ft 433 kts 95°
2026-05-05 09:23 42.46194 12.83528 23190 ft 437 kts 95°
2026-05-05 09:24 42.46010 12.87649 23644 ft 440 kts 95°
2026-05-05 09:24 42.45823 12.91803 24046 ft 443 kts 95°
2026-05-05 09:24 42.45632 12.95982 24430 ft 447 kts 95°
2026-05-05 09:24 42.45436 13.00197 24801 ft 450 kts 95°
2026-05-05 09:25 42.45236 13.04443 25138 ft 453 kts 95°
2026-05-05 09:25 42.45034 13.08717 25495 ft 456 kts 95°
2026-05-05 09:25 42.44826 13.13022 25812 ft 460 kts 95°
2026-05-05 09:25 42.44617 13.17357 26096 ft 464 kts 95°
2026-05-05 09:26 42.44406 13.21728 26425 ft 467 kts 95°
2026-05-05 09:26 42.44193 13.26130 26765 ft 470 kts 95°
2026-05-05 09:26 42.43977 13.30560 27077 ft 474 kts 95°
2026-05-05 09:26 42.43758 13.35023 27418 ft 477 kts 96°
2026-05-05 09:27 42.43537 13.39517 27737 ft 480 kts 96°
2026-05-05 09:27 42.43310 13.44040 28049 ft 483 kts 96°
2026-05-05 09:27 42.43080 13.48585 28404 ft 485 kts 95°
2026-05-05 09:27 42.42846 13.53141 28786 ft 487 kts 96°
2026-05-05 09:28 42.42608 13.57729 29111 ft 490 kts 96°
2026-05-05 09:28 42.42367 13.62344 29404 ft 493 kts 96°
2026-05-05 09:28 42.42123 13.66982 29696 ft 496 kts 96°
2026-05-05 09:28 42.41878 13.71650 29978 ft 499 kts 96°
2026-05-05 09:29 42.41631 13.76346 30236 ft 502 kts 96°
2026-05-05 09:29 42.41419 13.81065 30570 ft 504 kts 91°
2026-05-05 09:29 42.41818 13.85784 30830 ft 507 kts 76°
2026-05-05 09:29 42.42685 13.90424 31061 ft 510 kts 75°
2026-05-05 09:30 42.43595 13.95071 31317 ft 512 kts 74°
2026-05-05 09:30 42.44514 13.99738 31583 ft 514 kts 75°
2026-05-05 09:30 42.45432 14.04413 31950 ft 514 kts 74°
2026-05-05 09:30 42.46347 14.09088 32325 ft 513 kts 74°
2026-05-05 09:31 42.47259 14.13764 32688 ft 513 kts 74°
2026-05-05 09:31 42.48165 14.18431 33036 ft 513 kts 74°
2026-05-05 09:31 42.49069 14.23112 33365 ft 513 kts 74°
2026-05-05 09:31 42.49956 14.27801 33636 ft 515 kts 74°
2026-05-05 09:32 42.50849 14.32572 33944 ft 515 kts 75°
2026-05-05 09:32 42.51728 14.37283 34242 ft 515 kts 75°
2026-05-05 09:32 42.52606 14.41986 34603 ft 513 kts 75°
2026-05-05 09:32 42.53470 14.46586 35023 ft 509 kts 75°
2026-05-05 09:33 42.54055 14.51309 35357 ft 508 kts 83°
2026-05-05 09:33 42.54412 14.56127 35605 ft 506 kts 84°
2026-05-05 09:33 42.54735 14.60807 35852 ft 505 kts 84°
2026-05-05 09:33 42.55061 14.65604 36008 ft 504 kts 84°
2026-05-05 09:34 42.55380 14.70332 36051 ft 503 kts 84°
2026-05-05 09:34 42.56015 14.79773 36049 ft 502 kts 84°
2026-05-05 09:35 42.56577 14.89218 36046 ft 502 kts 89°
2026-05-05 09:35 42.56708 15.03436 36046 ft 503 kts 90°
2026-05-05 09:36 42.56761 15.12915 36051 ft 503 kts 90°
2026-05-05 09:36 42.56811 15.22409 36060 ft 504 kts 90°
2026-05-05 09:37 42.56855 15.31912 36062 ft 504 kts 89°
2026-05-05 09:37 42.56865 15.39809 36071 ft 504 kts 90°
2026-05-05 09:38 42.56873 15.49309 36075 ft 504 kts 90°
2026-05-05 09:38 42.56874 15.58804 36087 ft 503 kts 94°
2026-05-05 09:39 42.56340 15.63464 36090 ft 498 kts 109°
2026-05-05 09:39 42.55024 15.67763 36086 ft 491 kts 124°
2026-05-05 09:39 42.53052 15.71471 36064 ft 482 kts 136°
2026-05-05 09:39 42.50832 15.74884 36056 ft 483 kts 136°
2026-05-05 09:40 42.46366 15.81691 36055 ft 484 kts 136°
2026-05-05 09:40 42.41886 15.88515 36060 ft 485 kts 136°
2026-05-05 09:41 42.37407 15.95357 36066 ft 486 kts 136°
2026-05-05 09:41 42.32918 16.02186 36063 ft 486 kts 136°
2026-05-05 09:42 42.28739 16.09392 36049 ft 492 kts 122°
2026-05-05 09:42 42.26193 16.17980 36044 ft 496 kts 103°
2026-05-05 09:43 42.25634 16.22579 35896 ft 496 kts 97°
2026-05-05 09:43 42.25197 16.27200 35606 ft 497 kts 97°
2026-05-05 09:43 42.24756 16.31835 35358 ft 498 kts 97°
2026-05-05 09:43 42.24308 16.36479 35125 ft 499 kts 97°
2026-05-05 09:44 42.23409 16.45758 35076 ft 499 kts 97°
2026-05-05 09:44 42.22507 16.55034 35071 ft 498 kts 97°
2026-05-05 09:45 42.21600 16.64288 35082 ft 497 kts 97°
2026-05-05 09:45 42.20686 16.73526 35082 ft 496 kts 97°
2026-05-05 09:46 42.19762 16.82736 35086 ft 495 kts 97°
2026-05-05 09:46 42.18840 16.91944 35100 ft 496 kts 97°
2026-05-05 09:47 42.17907 17.01156 35102 ft 496 kts 97°
2026-05-05 09:47 42.16968 17.10356 35120 ft 495 kts 97°
2026-05-05 09:48 42.16019 17.19555 35123 ft 495 kts 97°
2026-05-05 09:48 42.15069 17.28733 35121 ft 494 kts 97°
2026-05-05 09:49 42.14110 17.37903 35125 ft 494 kts 97°
2026-05-05 09:49 42.13138 17.47058 35133 ft 493 kts 96°
2026-05-05 09:50 42.12159 17.56196 35133 ft 492 kts 97°
2026-05-05 09:50 42.11174 17.65317 35127 ft 492 kts 97°
2026-05-05 09:51 42.10190 17.74429 35125 ft 491 kts 97°
2026-05-05 09:51 42.09698 17.78971 34774 ft 489 kts 96°
2026-05-05 09:51 42.09203 17.83551 34302 ft 487 kts 96°
2026-05-05 09:52 42.08721 17.87991 33813 ft 485 kts 96°
2026-05-05 09:52 42.08227 17.92471 33036 ft 487 kts 96°
2026-05-05 09:52 42.07723 17.97025 32124 ft 494 kts 96°
2026-05-05 09:52 42.07215 18.01596 31524 ft 493 kts 96°
2026-05-05 09:53 42.06708 18.06144 31018 ft 489 kts 96°
2026-05-05 09:53 42.06194 18.10713 30519 ft 486 kts 97°
2026-05-05 09:53 42.05698 18.15146 29867 ft 485 kts 97°
2026-05-05 09:53 42.05190 18.19681 29259 ft 481 kts 97°
2026-05-05 09:54 42.04688 18.24158 28244 ft 487 kts 97°
2026-05-05 09:54 42.04181 18.28657 27540 ft 485 kts 97°
2026-05-05 09:54 42.03675 18.33124 26952 ft 481 kts 97°
2026-05-05 09:54 42.03170 18.37546 26400 ft 476 kts 97°
2026-05-05 09:55 42.02667 18.41923 25866 ft 471 kts 97°
2026-05-05 09:55 42.02164 18.46248 25412 ft 464 kts 97°
2026-05-05 09:55 42.01662 18.50509 24934 ft 459 kts 98°
2026-05-05 09:55 42.00847 18.54642 24270 ft 459 kts 108°
2026-05-05 09:56 41.99675 18.58659 23396 ft 463 kts 110°
2026-05-05 09:56 41.98291 18.62551 22678 ft 461 kts 122°
2026-05-05 09:56 41.96309 18.65891 22052 ft 455 kts 133°
2026-05-05 09:56 41.94167 18.68989 21419 ft 450 kts 133°
2026-05-05 09:57 41.92037 18.72031 20829 ft 444 kts 133°
2026-05-05 09:57 41.89924 18.75028 20080 ft 442 kts 134°
2026-05-05 09:57 41.87798 18.78035 19200 ft 445 kts 134°
2026-05-05 09:57 41.85677 18.81038 18508 ft 441 kts 134°
2026-05-05 09:58 41.83584 18.84012 17802 ft 436 kts 134°
2026-05-05 09:58 41.81512 18.86954 17113 ft 431 kts 134°
2026-05-05 09:58 41.79464 18.89856 16485 ft 426 kts 134°
2026-05-05 09:58 41.77433 18.92730 15852 ft 423 kts 134°
2026-05-05 09:59 41.75424 18.95569 15301 ft 418 kts 134°
2026-05-05 09:59 41.73430 18.98385 14685 ft 415 kts 134°
2026-05-05 09:59 41.71453 19.01172 14162 ft 410 kts 134°
2026-05-05 09:59 41.69501 19.03919 13596 ft 405 kts 134°
2026-05-05 10:00 41.67574 19.06630 12983 ft 400 kts 134°
2026-05-05 10:00 41.65666 19.09313 12353 ft 396 kts 134°
2026-05-05 10:00 41.63780 19.11967 11705 ft 392 kts 134°
2026-05-05 10:00 41.61913 19.14595 11098 ft 387 kts 133°
2026-05-05 10:01 41.60080 19.17173 10795 ft 374 kts 133°
2026-05-05 10:01 41.58330 19.19636 10659 ft 357 kts 133°
2026-05-05 10:01 41.56655 19.21986 10493 ft 343 kts 134°
2026-05-05 10:01 41.55026 19.24266 10072 ft 336 kts 134°
2026-05-05 10:02 41.53418 19.26511 9467 ft 333 kts 134°
2026-05-05 10:02 41.51830 19.28728 8819 ft 329 kts 134°
2026-05-05 10:02 41.50268 19.30914 8193 ft 322 kts 134°
2026-05-05 10:02 41.48738 19.33054 7581 ft 316 kts 134°
2026-05-05 10:03 41.47247 19.35135 7152 ft 303 kts 134°
2026-05-05 10:03 41.45822 19.37129 6801 ft 291 kts 132°
2026-05-05 10:03 41.44682 19.39289 6458 ft 280 kts 117°
2026-05-05 10:03 41.44001 19.41669 6095 ft 271 kts 106°
2026-05-05 10:04 41.43491 19.44039 5746 ft 263 kts 108°
2026-05-05 10:04 41.42962 19.46358 5492 ft 260 kts 106°
2026-05-05 10:04 41.42455 19.48642 5290 ft 254 kts 107°
2026-05-05 10:04 41.41985 19.50880 5099 ft 248 kts 104°
2026-05-05 10:05 41.41612 19.53083 4946 ft 238 kts 103°
2026-05-05 10:05 41.41286 19.55188 4793 ft 227 kts 102°
2026-05-05 10:05 41.40995 19.57220 4565 ft 220 kts 102°
2026-05-05 10:05 41.40714 19.59193 4307 ft 212 kts 105°
2026-05-05 10:06 41.40206 19.60935 4132 ft 194 kts 121°
2026-05-05 10:06 41.39354 19.62280 3762 ft 188 kts 141°
2026-05-05 10:06 41.38307 19.63299 3470 ft 185 kts 144°
2026-05-05 10:06 41.37355 19.64392 3186 ft 175 kts 139°
2026-05-05 10:07 41.36510 19.65457 2884 ft 162 kts 138°
2026-05-05 10:07 41.35718 19.66461 2623 ft 154 kts 139°
2026-05-05 10:07 41.34934 19.67428 2408 ft 153 kts 140°
2026-05-05 10:07 41.34163 19.68395 2245 ft 152 kts 139°
2026-05-05 10:08 41.33578 19.69573 2139 ft 157 kts 114°
2026-05-05 10:08 41.33397 19.71007 1932 ft 158 kts 90°
2026-05-05 10:08 41.33679 19.72414 1724 ft 157 kts 62°
2026-05-05 10:08 41.34557 19.73224 1507 ft 158 kts
2026-05-05 10:09 41.35621 19.73010 1282 ft 155 kts 343°
2026-05-05 10:09 41.36685 19.72711 1006 ft 156 kts 346°
2026-05-05 10:09 41.37754 19.72548 767 ft 155 kts 354°
2026-05-05 10:09 41.38818 19.72414 527 ft 153 kts 352°
2026-05-05 10:10 41.39866 19.72273 283 ft 150 kts 353°
2026-05-05 10:10 41.40880 19.72131 135 ft 135 kts 356°
2026-05-05 10:10 41.41666 19.72031 122 ft 89 kts 354°
2026-05-05 10:10 41.42217 19.71956 120 ft 71 kts 354°
2026-05-05 10:11 41.42596 19.71906 116 ft 31 kts 355°
2026-05-05 10:11 41.42684 19.71878 116 ft 7 kts 306°
2026-05-05 10:11 41.42684 19.71807 116 ft 9 kts 263°
2026-05-05 10:11 41.42676 19.71715 118 ft 11 kts 263°
2026-05-05 10:12 41.42668 19.71607 118 ft 13 kts 265°
2026-05-05 10:12 41.42659 19.71507 118 ft 8 kts 250°
2026-05-05 10:12 41.42611 19.71491 116 ft 8 kts 174°
2026-05-05 10:12 41.42549 19.71499 117 ft 10 kts 174°
2026-05-05 10:13 41.42477 19.71509 117 ft 11 kts 174°
2026-05-05 10:13 41.42397 19.71520 118 ft 12 kts 174°
2026-05-05 10:13 41.42311 19.71532 119 ft 12 kts 174°
2026-05-05 10:13 41.42243 19.71541 117 ft 8 kts 174°
2026-05-05 10:14 41.42224 19.71519 119 ft 4 kts 256°
2026-05-05 10:14 41.42222 19.71485 118 ft 2 kts 264°
2026-05-05 10:14 41.42221 19.71483 118 ft 0 kts 264°